| time (UTC) | temp F | wind direction | speed MPH | gust MPH | rain 1hr in | rain 24hr in | rain mn in | humidity % | barometer mb |
| 20260906111641 | 72 | 54 | 3.0 | 3.0 | 0.00 | 0.00 | 0.00 | 99 | 1013.0 |
| 20260906111141 | 72 | 44 | 3.0 | 3.0 | 0.00 | 0.00 | 0.00 | 99 | 1012.8 |
| 20260906110641 | 72 | 54 | 2.0 | 4.0 | 0.00 | 0.00 | 0.00 | 99 | 1012.9 |
| 20260906110200 | 72 | 38 | 2.0 | 3.0 | 0.00 | 0.00 | 0.00 | 99 | 1012.8 |
| 20260906105659 | 72 | 39 | 1.0 | 3.0 | 0.00 | 0.00 | 0.00 | 99 | 1012.8 |
| 20260906105140 | 72 | 45 | 2.0 | 3.0 | 0.00 | 0.00 | 0.00 | 99 | 1012.4 |
| 20260906104700 | 72 | 44 | 3.0 | 6.0 | 0.00 | 0.00 | 0.00 | 99 | 1012.6 |
| 20260906104140 | 72 | 18 | 4.0 | 5.0 | 0.00 | 0.00 | 0.00 | 99 | 1012.4 |
| 20260906103640 | 71 | 35 | 3.0 | 5.0 | 0.00 | 0.00 | 0.00 | 99 | 1012.6 |
| 20260906103141 | 71 | 28 | 3.0 | 4.0 | 0.00 | 0.00 | 0.00 | 99 | 1012.7 |
| 20260906102641 | 71 | 31 | 3.0 | 3.0 | 0.00 | 0.00 | 0.00 | 99 | 1012.6 |
| 20260906102141 | 71 | 35 | 2.0 | 3.0 | 0.00 | 0.00 | 0.00 | 99 | 1012.6 |
| 20260906101700 | 71 | 38 | 2.0 | 4.0 | 0.00 | 0.00 | 0.00 | 99 | 1012.6 |
| 20260906101141 | 71 | 39 | 2.0 | 3.0 | 0.00 | 0.00 | 0.00 | 99 | 1012.3 |
| 20260906100641 | 71 | 35 | 2.0 | 3.0 | 0.00 | 0.00 | 0.00 | 99 | 1012.2 |
| 20260906100140 | 71 | 46 | 2.0 | 3.0 | 0.00 | 0.00 | 0.00 | 99 | 1012.3 |
| 20260906095640 | 70 | 50 | 0.0 | 2.0 | 0.00 | 0.00 | 0.00 | 99 | 1012.4 |
| 20260906095141 | 70 | 40 | 0.0 | 1.0 | 0.00 | 0.00 | 0.00 | 99 | 1012.2 |
| 20260906094641 | 70 | 34 | 0.0 | 1.0 | 0.00 | 0.00 | 0.00 | 99 | 1012.4 |
| 20260906094141 | 70 | 13 | 0.0 | 2.0 | 0.00 | 0.00 | 0.00 | 99 | 1012.2 |
| 20260906093641 | 70 | 50 | 0.0 | 0.0 | 0.00 | 0.00 | 0.00 | 99 | 1012.2 |
| 20260906093141 | 70 | 50 | 0.0 | 0.0 | 0.00 | 0.00 | 0.00 | 99 | 1012.1 |
| 20260906092641 | 70 | 164 | 0.0 | 1.0 | 0.00 | 0.00 | 0.00 | 99 | 1011.9 |
| 20260906092141 | 70 | 147 | 0.0 | 0.0 | 0.00 | 0.00 | 0.00 | 99 | 1011.9 |
| 20260906091641 | 70 | 15 | 0.0 | 1.0 | 0.00 | 0.00 | 0.00 | 99 | 1011.7 |
| 20260906091141 | 70 | 11 | 0.0 | 0.0 | 0.00 | 0.00 | 0.00 | 99 | 1011.5 |
| 20260906090641 | 70 | 17 | 0.0 | 1.0 | 0.00 | 0.00 | 0.00 | 99 | 1011.8 |
| 20260906090141 | 70 | 27 | 0.0 | 2.0 | 0.00 | 0.00 | 0.00 | 99 | 1011.5 |
| 20260906085640 | 69 | 29 | 1.0 | 3.0 | 0.00 | 0.00 | 0.00 | 99 | 1011.7 |
| 20260906085141 | 69 | 63 | 1.0 | 1.0 | 0.00 | 0.00 | 0.00 | 99 | 1011.6 |
| 20260906084640 | 69 | 48 | 1.0 | 2.0 | 0.00 | 0.00 | 0.00 | 99 | 1011.8 |
| 20260906084140 | 69 | 342 | 0.0 | 1.0 | 0.00 | 0.00 | 0.00 | 99 | 1011.5 |
| 20260906083640 | 69 | 69 | 2.0 | 3.0 | 0.00 | 0.00 | 0.00 | 99 | 1011.6 |
| 20260906083141 | 69 | 78 | 1.0 | 2.0 | 0.00 | 0.00 | 0.00 | 98 | 1011.6 |
| 20260906082641 | 69 | 70 | 2.0 | 3.0 | 0.00 | 0.00 | 0.00 | 99 | 1011.6 |
| 20260906082141 | 68 | 71 | 1.0 | 3.0 | 0.00 | 0.00 | 0.00 | 99 | 1011.7 |
| 20260906081641 | 68 | 62 | 1.0 | 2.0 | 0.00 | 0.00 | 0.00 | 98 | 1011.4 |
| 20260906081201 | 68 | 38 | 2.0 | 2.0 | 0.00 | 0.00 | 0.00 | 98 | 1011.4 |
| 20260906080641 | 68 | 74 | 1.0 | 1.0 | 0.00 | 0.00 | 0.00 | 98 | 1011.5 |
| 20260906080140 | 68 | 25 | 0.0 | 1.0 | 0.00 | 0.00 | 0.00 | 98 | 1011.2 |
| 20260906075701 | 68 | 56 | 1.0 | 2.0 | 0.00 | 0.00 | 0.00 | 98 | 1011.1 |
| 20260906075141 | 68 | 45 | 0.0 | 0.0 | 0.00 | 0.00 | 0.00 | 98 | 1011.0 |
| 20260906074640 | 68 | 89 | 0.0 | 0.0 | 0.00 | 0.00 | 0.00 | 98 | 1011.2 |
| 20260906074140 | 68 | 32 | 0.0 | 0.0 | 0.00 | 0.00 | 0.00 | 98 | 1011.1 |
| 20260906073640 | 68 | 32 | 0.0 | 0.0 | 0.00 | 0.00 | 0.00 | 98 | 1011.1 |
| 20260906073141 | 68 | 55 | 0.0 | 1.0 | 0.00 | 0.00 | 0.00 | 98 | 1011.3 |
| 20260906072641 | 68 | 89 | 1.0 | 1.0 | 0.00 | 0.00 | 0.00 | 98 | 1011.2 |
| 20260906072141 | 68 | 309 | 0.0 | 0.0 | 0.00 | 0.00 | 0.00 | 98 | 1011.1 |
| 20260906071700 | 68 | 29 | 0.0 | 0.0 | 0.00 | 0.00 | 0.00 | 98 | 1011.1 |
| 20260906071141 | 68 | 32 | 0.0 | 2.0 | 0.00 | 0.00 | 0.00 | 98 | 1011.2 |
| 20260906070641 | 68 | 89 | 0.0 | 0.0 | 0.00 | 0.00 | 0.00 | 98 | 1011.3 |
| 20260906070142 | 68 | 54 | 0.0 | 1.0 | 0.00 | 0.00 | 0.00 | 98 | 1011.2 |
| 20260906065641 | 68 | 37 | 0.0 | 1.0 | 0.00 | 0.00 | 0.00 | 98 | 1011.4 |
| 20260906065200 | 68 | 42 | 0.0 | 1.0 | 0.00 | 0.00 | 0.00 | 98 | 1011.3 |
| 20260906064642 | 69 | 32 | 1.0 | 1.0 | 0.00 | 0.00 | 0.00 | 98 | 1011.4 |
| 20260906064141 | 69 | 52 | 0.0 | 1.0 | 0.00 | 0.00 | 0.00 | 98 | 1011.3 |
| 20260906063641 | 69 | 40 | 0.0 | 1.0 | 0.00 | 0.00 | 0.00 | 98 | 1011.5 |
| 20260906063141 | 69 | 49 | 1.0 | 1.0 | 0.00 | 0.00 | 0.00 | 98 | 1011.8 |
| 20260906062700 | 69 | 50 | 0.0 | 0.0 | 0.00 | 0.00 | 0.00 | 98 | 1011.5 |
| 20260906062141 | 69 | 50 | 0.0 | 0.0 | 0.00 | 0.00 | 0.00 | 98 | 1011.4 |
| 20260906061641 | 69 | 48 | 0.0 | 0.0 | 0.00 | 0.00 | 0.00 | 98 | 1011.4 |
| 20260906061141 | 69 | 66 | 0.0 | 0.0 | 0.00 | 0.00 | 0.00 | 98 | 1011.4 |
| 20260906060642 | 69 | 32 | 0.0 | 0.0 | 0.00 | 0.00 | 0.00 | 98 | 1011.4 |
| 20260906060141 | 69 | 73 | 0.0 | 1.0 | 0.00 | 0.00 | 0.00 | 98 | 1011.4 |
| 20260906055640 | 69 | 55 | 1.0 | 1.0 | 0.00 | 0.00 | 0.00 | 98 | 1011.6 |
| 20260906055141 | 69 | 92 | 1.0 | 1.0 | 0.00 | 0.00 | 0.00 | 98 | 1011.8 |
| 20260906054641 | 69 | 55 | 0.0 | 1.0 | 0.00 | 0.00 | 0.00 | 98 | 1011.8 |
| 20260906054140 | 69 | 50 | 0.0 | 0.0 | 0.00 | 0.00 | 0.00 | 98 | 1011.8 |
| 20260906053700 | 69 | 52 | 0.0 | 1.0 | 0.00 | 0.00 | 0.00 | 98 | 1011.8 |
| 20260906053142 | 69 | 46 | 1.0 | 2.0 | 0.00 | 0.00 | 0.00 | 98 | 1012.0 |
| 20260906052641 | 69 | 48 | 1.0 | 2.0 | 0.00 | 0.00 | 0.00 | 98 | 1012.0 |
| 20260906052141 | 69 | 48 | 1.0 | 1.0 | 0.00 | 0.00 | 0.00 | 98 | 1012.0 |
| 20260906051719 | 69 | 315 | 0.0 | 0.0 | 0.00 | 0.00 | 0.00 | 98 | 1012.0 |
| 20260906051142 | 69 | 44 | 0.0 | 0.0 | 0.00 | 0.00 | 0.00 | 98 | 1012.2 |
| 20260906050641 | 69 | 42 | 1.0 | 2.0 | 0.00 | 0.00 | 0.00 | 98 | 1012.2 |
| 20260906050140 | 69 | 345 | 0.0 | 1.0 | 0.00 | 0.00 | 0.00 | 98 | 1012.3 |
| 20260906045641 | 70 | 50 | 0.0 | 0.0 | 0.00 | 0.00 | 0.00 | 98 | 1012.1 |
| 20260906045159 | 70 | 38 | 0.0 | 0.0 | 0.00 | 0.00 | 0.00 | 98 | 1012.3 |
| 20260906044641 | 70 | 34 | 1.0 | 2.0 | 0.00 | 0.00 | 0.00 | 98 | 1012.4 |
| 20260906044159 | 70 | 31 | 2.0 | 2.0 | 0.00 | 0.00 | 0.00 | 98 | 1012.4 |
| 20260906043640 | 70 | 98 | 0.0 | 0.0 | 0.00 | 0.00 | 0.00 | 98 | 1012.7 |
| 20260906043141 | 70 | 123 | 2.0 | 2.0 | 0.00 | 0.00 | 0.00 | 98 | 1012.5 |
| 20260906042641 | 70 | 6 | 0.0 | 1.0 | 0.00 | 0.00 | 0.00 | 98 | 1012.6 |
| 20260906042141 | 70 | 37 | 0.0 | 0.0 | 0.00 | 0.00 | 0.00 | 98 | 1012.6 |
| 20260906041641 | 70 | 37 | 0.0 | 2.0 | 0.00 | 0.00 | 0.00 | 98 | 1012.6 |
| 20260906041141 | 71 | 121 | 0.0 | 1.0 | 0.00 | 0.00 | 0.00 | 98 | 1012.5 |
| 20260906040641 | 70 | 62 | 0.0 | 1.0 | 0.00 | 0.00 | 0.00 | 98 | 1012.6 |
| 20260906040140 | 70 | 37 | 0.0 | 0.0 | 0.00 | 0.00 | 0.00 | 98 | 1012.7 |
| 20260906035640 | 71 | 67 | 0.0 | 1.0 | 0.00 | 0.00 | 0.11 | 98 | 1012.8 |
| 20260906035159 | 70 | 66 | 0.0 | 0.0 | 0.00 | 0.00 | 0.11 | 98 | 1012.7 |
| 20260906034640 | 70 | 164 | 0.0 | 0.0 | 0.00 | 0.00 | 0.11 | 98 | 1012.7 |
| 20260906034140 | 70 | 173 | 0.0 | 0.0 | 0.00 | 0.00 | 0.11 | 98 | 1012.7 |
| 20260906033659 | 70 | 299 | 0.0 | 0.0 | 0.00 | 0.00 | 0.11 | 98 | 1012.6 |
| 20260906033141 | 70 | 299 | 0.0 | 0.0 | 0.00 | 0.00 | 0.11 | 98 | 1012.8 |
| 20260906032700 | 70 | 180 | 0.0 | 0.0 | 0.00 | 0.00 | 0.11 | 98 | 1012.9 |
| 20260906032141 | 70 | 160 | 0.0 | 1.0 | 0.00 | 0.00 | 0.11 | 98 | 1012.5 |
| 20260906031641 | 71 | 100 | 1.0 | 1.0 | 0.00 | 0.00 | 0.11 | 98 | 1012.5 |
| 20260906031141 | 71 | 309 | 0.0 | 0.0 | 0.00 | 0.00 | 0.11 | 98 | 1012.7 |
| 20260906030641 | 71 | 309 | 0.0 | 0.0 | 0.00 | 0.00 | 0.11 | 98 | 1012.4 |
| 20260906030140 | 71 | 37 | 0.0 | 0.0 | 0.00 | 0.00 | 0.11 | 98 | 1012.5 |
| 20260906025659 | 71 | 37 | 0.0 | 0.0 | 0.00 | 0.00 | 0.11 | 98 | 1012.6 |
| 20260906025140 | 71 | 37 | 0.0 | 1.0 | 0.00 | 0.00 | 0.11 | 98 | 1012.5 |
| 20260906024640 | 71 | 47 | 1.0 | 1.0 | 0.00 | 0.00 | 0.11 | 98 | 1012.1 |
| 20260906024140 | 71 | 101 | 1.0 | 1.0 | 0.00 | 0.00 | 0.11 | 98 | 1012.3 |
| 20260906023659 | 71 | 242 | 0.0 | 0.0 | 0.00 | 0.00 | 0.11 | 98 | 1012.3 |
| 20260906023141 | 71 | 345 | 0.0 | 0.0 | 0.00 | 0.00 | 0.11 | 98 | 1012.1 |
| 20260906022700 | 71 | 212 | 0.0 | 0.0 | 0.00 | 0.00 | 0.11 | 98 | 1012.1 |
| 20260906022141 | 71 | 217 | 0.0 | 1.0 | 0.00 | 0.00 | 0.11 | 98 | 1012.2 |
| 20260906021641 | 71 | 217 | 0.0 | 1.0 | 0.00 | 0.00 | 0.11 | 97 | 1012.2 |
| 20260906021141 | 71 | 157 | 0.0 | 0.0 | 0.00 | 0.00 | 0.11 | 97 | 1012.1 |
| 20260906020641 | 71 | 314 | 0.0 | 0.0 | 0.00 | 0.00 | 0.11 | 97 | 1012.2 |
| 20260906020140 | 71 | 336 | 0.0 | 0.0 | 0.00 | 0.00 | 0.11 | 97 | 1012.0 |
| 20260906015640 | 71 | 37 | 0.0 | 1.0 | 0.00 | 0.00 | 0.11 | 97 | 1012.0 |
| 20260906015140 | 71 | 309 | 0.0 | 1.0 | 0.00 | 0.00 | 0.11 | 97 | 1011.9 |
| 20260906014640 | 71 | 2 | 1.0 | 1.0 | 0.00 | 0.00 | 0.11 | 97 | 1011.9 |
| 20260906014140 | 71 | 269 | 0.0 | 1.0 | 0.00 | 0.00 | 0.11 | 97 | 1012.0 |
| 20260906013640 | 71 | 87 | 0.0 | 1.0 | 0.00 | 0.00 | 0.11 | 97 | 1012.0 |
| 20260906013141 | 71 | 40 | 0.0 | 1.0 | 0.00 | 0.00 | 0.11 | 97 | 1012.1 |
| 20260906012641 | 71 | 77 | 0.0 | 2.0 | 0.00 | 0.00 | 0.11 | 97 | 1012.1 |
| 20260906012141 | 71 | 297 | 0.0 | 1.0 | 0.00 | 0.00 | 0.11 | 97 | 1012.0 |
| 20260906011641 | 71 | 309 | 0.0 | 0.0 | 0.00 | 0.00 | 0.11 | 97 | 1012.1 |
| 20260906011141 | 71 | 297 | 0.0 | 0.0 | 0.00 | 0.00 | 0.11 | 97 | 1012.0 |
| 20260906010641 | 72 | 89 | 0.0 | 3.0 | 0.00 | 0.00 | 0.11 | 97 | 1011.9 |
| 20260906010200 | 72 | 202 | 0.0 | 0.0 | 0.00 | 0.00 | 0.11 | 97 | 1012.0 |
| 20260906005641 | 72 | 202 | 0.0 | 0.0 | 0.00 | 0.00 | 0.11 | 97 | 1011.7 |
| 20260906005141 | 72 | 89 | 0.0 | 1.0 | 0.00 | 0.00 | 0.11 | 97 | 1011.5 |
| 20260906004641 | 72 | 59 | 1.0 | 1.0 | 0.00 | 0.00 | 0.11 | 97 | 1011.4 |
| 20260906004141 | 72 | 0 | 0.0 | 1.0 | 0.00 | 0.00 | 0.11 | 97 | 1011.5 |
| 20260906003641 | 72 | 230 | 0.0 | 1.0 | 0.00 | 0.00 | 0.11 | 97 | 1011.6 |
| 20260906003200 | 72 | 66 | 0.0 | 0.0 | 0.00 | 0.00 | 0.11 | 96 | 1011.5 |
| 20260906002641 | 72 | 40 | 0.0 | 1.0 | 0.00 | 0.00 | 0.11 | 96 | 1011.2 |
| 20260906002141 | 72 | 19 | 0.0 | 0.0 | 0.00 | 0.00 | 0.11 | 96 | 1011.1 |
| 20260906001641 | 72 | 112 | 0.0 | 1.0 | 0.00 | 0.00 | 0.11 | 96 | 1011.2 |
| 20260906001141 | 73 | 169 | 0.0 | 0.0 | 0.00 | 0.00 | 0.11 | 96 | 1010.9 |
| 20260906000641 | 73 | 322 | 0.0 | 0.0 | 0.00 | 0.00 | 0.11 | 96 | 1011.1 |
| 20260906000200 | 73 | 322 | 0.0 | 0.0 | 0.00 | 0.00 | 0.11 | 96 | 1011.0 |
| 20260905235640 | 73 | 211 | 0.0 | 1.0 | 0.00 | 0.00 | 0.11 | 96 | 1010.9 |
| 20260905235141 | 73 | 132 | 0.0 | 1.0 | 0.00 | 0.00 | 0.11 | 95 | 1011.1 |
| 20260905234641 | 73 | 309 | 0.0 | 0.0 | 0.00 | 0.00 | 0.11 | 95 | 1010.9 |
| 20260905234140 | 74 | 309 | 0.0 | 0.0 | 0.00 | 0.00 | 0.11 | 95 | 1010.7 |
| 20260905233641 | 74 | 350 | 0.0 | 1.0 | 0.00 | 0.00 | 0.11 | 95 | 1010.7 |
| 20260905233141 | 74 | 62 | 0.0 | 0.0 | 0.00 | 0.00 | 0.11 | 95 | 1010.8 |
| 20260905232641 | 74 | 353 | 0.0 | 0.0 | 0.00 | 0.00 | 0.11 | 95 | 1010.3 |
| 20260905232141 | 74 | 59 | 0.0 | 1.0 | 0.00 | 0.00 | 0.11 | 95 | 1010.7 |
| 20260905231641 | 74 | 93 | 1.0 | 1.0 | 0.00 | 0.00 | 0.11 | 95 | 1010.6 |
| 20260905231141 | 74 | 89 | 0.0 | 0.0 | 0.00 | 0.00 | 0.11 | 95 | 1010.4 |
| 20260905230641 | 74 | 89 | 0.0 | 1.0 | 0.00 | 0.00 | 0.11 | 94 | 1010.1 |
| 20260905230140 | 74 | 60 | 0.0 | 1.0 | 0.00 | 0.00 | 0.11 | 95 | 1010.0 |
| 20260905225640 | 74 | 129 | 0.0 | 1.0 | 0.00 | 0.00 | 0.11 | 95 | 1010.0 |
| 20260905225141 | 74 | 269 | 0.0 | 1.0 | 0.00 | 0.00 | 0.11 | 94 | 1010.1 |
| 20260905224659 | 74 | 76 | 0.0 | 1.0 | 0.00 | 0.00 | 0.11 | 94 | 1010.0 |
| 20260905224141 | 74 | 78 | 1.0 | 1.0 | 0.00 | 0.00 | 0.11 | 95 | 1010.1 |
| 20260905223659 | 74 | 315 | 0.0 | 0.0 | 0.00 | 0.00 | 0.11 | 95 | 1009.9 |
| 20260905223141 | 74 | 112 | 2.0 | 2.0 | 0.00 | 0.00 | 0.11 | 95 | 1010.0 |
| 20260905222641 | 74 | 333 | 0.0 | 0.0 | 0.00 | 0.00 | 0.11 | 95 | 1010.0 |
| 20260905222141 | 74 | 44 | 0.0 | 1.0 | 0.00 | 0.00 | 0.11 | 96 | 1010.2 |
| 20260905221700 | 74 | 119 | 0.0 | 1.0 | 0.00 | 0.00 | 0.11 | 96 | 1010.4 |
| 20260905221142 | 74 | 130 | 0.0 | 1.0 | 0.00 | 0.00 | 0.11 | 96 | 1010.4 |
| 20260905220641 | 74 | 142 | 0.0 | 0.0 | 0.00 | 0.00 | 0.11 | 96 | 1010.6 |
| 20260905220140 | 74 | 149 | 0.0 | 1.0 | 0.00 | 0.00 | 0.11 | 96 | 1010.8 |
| 20260905215640 | 74 | 44 | 0.0 | 1.0 | 0.00 | 0.00 | 0.11 | 96 | 1010.9 |
| 20260905215140 | 74 | 209 | 0.0 | 1.0 | 0.00 | 0.00 | 0.11 | 96 | 1011.1 |
| 20260905214640 | 74 | 188 | 1.0 | 1.0 | 0.00 | 0.00 | 0.11 | 96 | 1011.4 |
| 20260905214159 | 74 | 62 | 0.0 | 2.0 | 0.00 | 0.00 | 0.11 | 96 | 1011.4 |
| 20260905213640 | 74 | 10 | 1.0 | 1.0 | 0.00 | 0.01 | 0.11 | 96 | 1010.8 |
| 20260905213141 | 74 | 279 | 1.0 | 2.0 | 0.00 | 0.01 | 0.11 | 96 | 1011.1 |
| 20260905212641 | 74 | 263 | 1.0 | 1.0 | 0.00 | 0.01 | 0.11 | 96 | 1011.0 |
| 20260905212141 | 74 | 265 | 1.0 | 2.0 | 0.00 | 0.01 | 0.11 | 96 | 1011.1 |
| 20260905211641 | 74 | 324 | 1.0 | 1.0 | 0.00 | 0.01 | 0.11 | 96 | 1011.0 |
| 20260905211141 | 74 | 269 | 0.0 | 2.0 | 0.00 | 0.01 | 0.11 | 96 | 1010.6 |
| 20260905210641 | 73 | 290 | 0.0 | 1.0 | 0.02 | 0.02 | 0.11 | 96 | 1011.0 |
| 20260905210140 | 73 | 111 | 1.0 | 2.0 | 0.02 | 0.04 | 0.11 | 96 | 1010.9 |
| 20260905205640 | 73 | 214 | 0.0 | 1.0 | 0.00 | 0.08 | 0.11 | 96 | 1011.0 |
| 20260905205140 | 73 | 209 | 1.0 | 2.0 | 0.00 | 0.11 | 0.11 | 95 | 1010.8 |
| 20260905204659 | 73 | 17 | 0.0 | 1.0 | 0.02 | 0.11 | 0.11 | 95 | 1010.5 |
| 20260905204140 | 73 | 305 | 1.0 | 2.0 | 0.02 | 0.11 | 0.11 | 95 | 1010.4 |
| 20260905203640 | 73 | 286 | 1.0 | 1.0 | 0.02 | 0.11 | 0.11 | 94 | 1010.1 |
| 20260905203141 | 73 | 17 | 0.0 | 2.0 | 0.02 | 0.11 | 0.11 | 94 | 1010.2 |
| 20260905202641 | 73 | 0 | 0.0 | 3.0 | 0.00 | 0.10 | 0.10 | 93 | 1010.2 |
| 20260905202141 | 74 | 58 | 4.0 | 4.0 | 0.00 | 0.10 | 0.10 | 93 | 1010.1 |
| 20260905201641 | 74 | 193 | 0.0 | 2.0 | 0.07 | 0.10 | 0.10 | 90 | 1009.8 |
| 20260905201141 | 75 | 155 | 2.0 | 3.0 | 0.28 | 0.10 | 0.10 | 90 | 1009.9 |
| 20260905200641 | 76 | 220 | 1.0 | 5.0 | 0.50 | 0.09 | 0.09 | 84 | 1009.6 |
| 20260905200141 | 80 | 55 | 6.0 | 7.0 | 0.28 | 0.05 | 0.05 | 79 | 1010.8 |
| 20260905195641 | 83 | 63 | 3.0 | 11.0 | 0.02 | 0.00 | 0.00 | 71 | 1010.7 |
| 20260905195141 | 89 | 40 | 11.0 | 14.0 | 0.00 | 0.00 | 0.00 | 59 | 1010.5 |
| 20260905194641 | 92 | 39 | 4.0 | 7.0 | 0.00 | 0.00 | 0.00 | 56 | 1009.9 |
| 20260905194141 | 93 | 25 | 1.0 | 2.0 | 0.00 | 0.00 | 0.00 | 54 | 1009.7 |
| 20260905193641 | 94 | 70 | 0.0 | 3.0 | 0.00 | 0.00 | 0.00 | 52 | 1009.8 |
| 20260905193141 | 95 | 235 | 0.0 | 1.0 | 0.00 | 0.00 | 0.00 | 52 | 1009.6 |
| 20260905192641 | 95 | 332 | 2.0 | 3.0 | 0.00 | 0.00 | 0.00 | 49 | 1009.3 |
| 20260905192142 | 96 | 274 | 1.0 | 1.0 | 0.00 | 0.00 | 0.00 | 47 | 1009.4 |
| 20260905191641 | 96 | 175 | 0.0 | 3.0 | 0.00 | 0.00 | 0.00 | 47 | 1009.3 |
| 20260905191141 | 96 | 330 | 2.0 | 2.0 | 0.00 | 0.00 | 0.00 | 47 | 1009.5 |
| 20260905190641 | 97 | 56 | 0.0 | 2.0 | 0.00 | 0.00 | 0.00 | 47 | 1009.0 |
| 20260905190141 | 97 | 223 | 1.0 | 3.0 | 0.00 | 0.00 | 0.00 | 44 | 1008.9 |
| 20260905185641 | 98 | 331 | 2.0 | 2.0 | 0.00 | 0.00 | 0.00 | 45 | 1008.6 |
| 20260905185200 | 99 | 75 | 2.0 | 3.0 | 0.00 | 0.00 | 0.00 | 42 | 1008.8 |
| 20260905184641 | 99 | 259 | 2.0 | 3.0 | 0.00 | 0.00 | 0.00 | 45 | 1009.1 |
| 20260905184141 | 98 | 331 | 3.0 | 3.0 | 0.00 | 0.00 | 0.00 | 45 | 1009.2 |
| 20260905183641 | 99 | 323 | 0.0 | 2.0 | 0.00 | 0.00 | 0.00 | 47 | 1009.5 |
| 20260905183141 | 98 | 254 | 3.0 | 5.0 | 0.00 | 0.00 | 0.00 | 45 | 1009.6 |
| 20260905182641 | 98 | 61 | 1.0 | 3.0 | 0.00 | 0.00 | 0.00 | 47 | 1009.5 |
| 20260905182140 | 97 | 79 | 2.0 | 3.0 | 0.00 | 0.00 | 0.00 | 49 | 1009.5 |
| 20260905181640 | 97 | 328 | 3.0 | 4.0 | 0.00 | 0.00 | 0.00 | 49 | 1009.8 |
| 20260905181141 | 98 | 36 | 2.0 | 4.0 | 0.00 | 0.00 | 0.00 | 46 | 1009.9 |
| 20260905180641 | 98 | 165 | 1.0 | 4.0 | 0.00 | 0.00 | 0.00 | 48 | 1009.7 |
| 20260905180141 | 98 | 177 | 1.0 | 3.0 | 0.00 | 0.00 | 0.00 | 47 | 1009.9 |
| 20260905175641 | 97 | 343 | 2.0 | 3.0 | 0.00 | 0.00 | 0.00 | 51 | 1010.2 |
| 20260905175200 | 97 | 265 | 0.0 | 2.0 | 0.00 | 0.00 | 0.00 | 48 | 1010.2 |
| 20260905174641 | 98 | 334 | 3.0 | 3.0 | 0.00 | 0.00 | 0.00 | 48 | 1010.3 |
| 20260905174200 | 98 | 133 | 0.0 | 3.0 | 0.00 | 0.00 | 0.00 | 47 | 1010.6 |
| 20260905173641 | 98 | 229 | 3.0 | 5.0 | 0.00 | 0.00 | 0.00 | 47 | 1010.6 |
| 20260905173141 | 98 | 258 | 0.0 | 4.0 | 0.00 | 0.00 | 0.00 | 47 | 1010.9 |
| 20260905172640 | 98 | 68 | 1.0 | 4.0 | 0.00 | 0.00 | 0.00 | 47 | 1010.8 |
| 20260905172140 | 98 | 216 | 4.0 | 6.0 | 0.00 | 0.00 | 0.00 | 48 | 1010.9 |
| 20260905171659 | 98 | 66 | 0.0 | 4.0 | 0.00 | 0.00 | 0.00 | 49 | 1011.2 |
| 20260905171141 | 97 | 269 | 0.0 | 4.0 | 0.00 | 0.00 | 0.00 | 50 | 1011.1 |
| 20260905170659 | 97 | 64 | 1.0 | 3.0 | 0.00 | 0.00 | 0.00 | 51 | 1011.1 |
| 20260905170141 | 97 | 279 | 2.0 | 2.0 | 0.00 | 0.00 | 0.00 | 49 | 1011.2 |
| 20260905165641 | 96 | 206 | 0.0 | 1.0 | 0.00 | 0.00 | 0.00 | 52 | 1011.4 |
| 20260905165141 | 96 | 35 | 3.0 | 3.0 | 0.00 | 0.00 | 0.00 | 51 | 1011.7 |
| 20260905164719 | 96 | 328 | 1.0 | 5.0 | 0.00 | 0.00 | 0.00 | 52 | 1011.5 |
| 20260905164141 | 95 | 242 | 3.0 | 3.0 | 0.00 | 0.00 | 0.00 | 53 | 1011.5 |
| 20260905163700 | 95 | 321 | 0.0 | 4.0 | 0.00 | 0.00 | 0.00 | 52 | 1011.6 |
| 20260905163220 | 95 | 237 | 0.0 | 3.0 | 0.00 | 0.00 | 0.00 | 53 | 1011.5 |
| 20260905162641 | 94 | 357 | 0.0 | 5.0 | 0.00 | 0.00 | 0.00 | 52 | 1011.7 |
| 20260905162141 | 94 | 343 | 2.0 | 3.0 | 0.00 | 0.00 | 0.00 | 53 | 1011.7 |
| 20260905161641 | 94 | 48 | 2.0 | 4.0 | 0.00 | 0.00 | 0.00 | 52 | 1011.9 |
| 20260905161142 | 95 | 330 | 1.0 | 3.0 | 0.00 | 0.00 | 0.00 | 51 | 1012.1 |
| 20260905160641 | 96 | 340 | 0.0 | 3.0 | 0.00 | 0.00 | 0.00 | 50 | 1012.1 |
| 20260905160141 | 95 | 148 | 1.0 | 3.0 | 0.00 | 0.00 | 0.00 | 51 | 1012.0 |
| 20260905155641 | 95 | 299 | 1.0 | 3.0 | 0.00 | 0.00 | 0.00 | 52 | 1011.9 |
| 20260905155141 | 94 | 278 | 0.0 | 1.0 | 0.00 | 0.00 | 0.00 | 53 | 1012.2 |
| 20260905154641 | 94 | 70 | 1.0 | 2.0 | 0.00 | 0.00 | 0.00 | 53 | 1012.1 |
| 20260905154141 | 93 | 230 | 0.0 | 3.0 | 0.00 | 0.00 | 0.00 | 55 | 1012.3 |
| 20260905153641 | 93 | 242 | 0.0 | 4.0 | 0.00 | 0.00 | 0.00 | 54 | 1012.4 |
| 20260905153141 | 93 | 329 | 2.0 | 4.0 | 0.00 | 0.00 | 0.00 | 54 | 1012.7 |
| 20260905152641 | 92 | 172 | 1.0 | 3.0 | 0.00 | 0.00 | 0.00 | 54 | 1012.5 |
| 20260905152141 | 91 | 58 | 0.0 | 3.0 | 0.00 | 0.00 | 0.00 | 56 | 1012.7 |
| 20260905151641 | 91 | 34 | 0.0 | 3.0 | 0.00 | 0.00 | 0.00 | 56 | 1012.6 |
| 20260905151141 | 92 | 52 | 2.0 | 2.0 | 0.00 | 0.00 | 0.00 | 55 | 1012.6 |
| 20260905150642 | 92 | 249 | 0.0 | 3.0 | 0.00 | 0.00 | 0.00 | 56 | 1012.8 |
| 20260905150140 | 91 | 248 | 0.0 | 3.0 | 0.00 | 0.00 | 0.00 | 57 | 1012.7 |
| 20260905145640 | 91 | 224 | 3.0 | 4.0 | 0.00 | 0.00 | 0.00 | 58 | 1012.7 |
| 20260905145141 | 91 | 253 | 1.0 | 3.0 | 0.00 | 0.00 | 0.00 | 57 | 1012.7 |
| 20260905144640 | 91 | 203 | 4.0 | 4.0 | 0.00 | 0.00 | 0.00 | 58 | 1012.6 |
| 20260905144140 | 91 | 281 | 2.0 | 3.0 | 0.00 | 0.00 | 0.00 | 57 | 1012.6 |
| 20260905143640 | 90 | 333 | 1.0 | 3.0 | 0.00 | 0.00 | 0.00 | 59 | 1012.7 |
| 20260905143141 | 89 | 307 | 1.0 | 3.0 | 0.00 | 0.00 | 0.00 | 60 | 1012.7 |
| 20260905142641 | 88 | 39 | 0.0 | 3.0 | 0.00 | 0.00 | 0.00 | 63 | 1012.7 |
| 20260905142141 | 87 | 5 | 0.0 | 3.0 | 0.00 | 0.00 | 0.00 | 63 | 1012.7 |
| 20260905141641 | 86 | 166 | 0.0 | 3.0 | 0.00 | 0.00 | 0.00 | 67 | 1012.9 |
| 20260905141141 | 86 | 58 | 1.0 | 4.0 | 0.00 | 0.00 | 0.00 | 67 | 1012.9 |
| 20260905140641 | 86 | 82 | 1.0 | 2.0 | 0.00 | 0.00 | 0.00 | 69 | 1012.7 |
| 20260905140140 | 85 | 12 | 1.0 | 3.0 | 0.00 | 0.00 | 0.00 | 70 | 1012.8 |
| 20260905135641 | 85 | 235 | 0.0 | 3.0 | 0.00 | 0.00 | 0.00 | 70 | 1012.7 |
| 20260905135200 | 84 | 289 | 2.0 | 4.0 | 0.00 | 0.00 | 0.00 | 70 | 1012.6 |
| 20260905134700 | 84 | 250 | 0.0 | 2.0 | 0.00 | 0.00 | 0.00 | 72 | 1012.9 |
| 20260905134140 | 83 | 255 | 0.0 | 1.0 | 0.00 | 0.00 | 0.00 | 74 | 1012.7 |
| 20260905133640 | 83 | 224 | 0.0 | 3.0 | 0.00 | 0.00 | 0.00 | 75 | 1012.7 |
| 20260905133200 | 83 | 291 | 0.0 | 2.0 | 0.00 | 0.00 | 0.00 | 75 | 1012.7 |
| 20260905132641 | 82 | 241 | 1.0 | 3.0 | 0.00 | 0.00 | 0.00 | 77 | 1012.8 |
| 20260905132141 | 82 | 205 | 0.0 | 0.0 | 0.00 | 0.00 | 0.00 | 79 | 1012.9 |
| 20260905131641 | 82 | 54 | 1.0 | 2.0 | 0.00 | 0.00 | 0.00 | 80 | 1013.0 |
| 20260905131141 | 81 | 56 | 0.0 | 2.0 | 0.00 | 0.00 | 0.00 | 80 | 1012.8 |
| 20260905130700 | 81 | 123 | 0.0 | 2.0 | 0.00 | 0.00 | 0.00 | 80 | 1012.9 |
| 20260905130140 | 80 | 14 | 2.0 | 2.0 | 0.00 | 0.00 | 0.00 | 81 | 1013.1 |
| 20260905125640 | 80 | 202 | 1.0 | 2.0 | 0.00 | 0.00 | 0.00 | 84 | 1013.4 |
| 20260905125141 | 80 | 164 | 0.0 | 2.0 | 0.00 | 0.00 | 0.00 | 84 | 1013.2 |
| 20260905124720 | 79 | 136 | 1.0 | 2.0 | 0.00 | 0.00 | 0.00 | 84 | 1013.4 |
| 20260905124140 | 79 | 350 | 2.0 | 2.0 | 0.00 | 0.00 | 0.00 | 85 | 1013.3 |
| 20260905123641 | 79 | 96 | 1.0 | 1.0 | 0.00 | 0.00 | 0.00 | 86 | 1013.1 |
| 20260905123141 | 78 | 322 | 2.0 | 2.0 | 0.00 | 0.00 | 0.00 | 87 | 1013.2 |
| 20260905122642 | 78 | 74 | 0.0 | 2.0 | 0.00 | 0.00 | 0.00 | 88 | 1013.1 |
| 20260905122141 | 77 | 79 | 1.0 | 4.0 | 0.00 | 0.00 | 0.00 | 89 | 1013.4 |
| 20260905121642 | 77 | 18 | 1.0 | 2.0 | 0.00 | 0.00 | 0.00 | 91 | 1013.2 |
| 20260905121141 | 76 | 91 | 1.0 | 2.0 | 0.00 | 0.00 | 0.00 | 92 | 1013.1 |
| 20260905120641 | 76 | 86 | 0.0 | 1.0 | 0.00 | 0.00 | 0.00 | 92 | 1012.9 |
| 20260905120159 | 76 | 124 | 0.0 | 2.0 | 0.00 | 0.00 | 0.00 | 93 | 1013.3 |
| 20260905115640 | 75 | 220 | 0.0 | 1.0 | 0.00 | 0.00 | 0.00 | 93 | 1013.1 |
| 20260905115237 | 75 | 238 | 0.0 | 1.0 | 0.00 | 0.00 | 0.00 | 94 | 1013.2 |
| 20260905114640 | 74 | 315 | 0.0 | 2.0 | 0.00 | 0.00 | 0.00 | 94 | 1013.0 |
| 20260905114140 | 74 | 73 | 0.0 | 1.0 | 0.00 | 0.00 | 0.00 | 94 | 1013.0 |
| 20260905113640 | 74 | 297 | 0.0 | 2.0 | 0.00 | 0.00 | 0.00 | 94 | 1013.0 |
| 20260905113141 | 74 | 269 | 0.0 | 1.0 | 0.00 | 0.00 | 0.00 | 95 | 1012.8 |
| 20260905112640 | 74 | 11 | 0.0 | 1.0 | 0.00 | 0.00 | 0.00 | 95 | 1012.7 |
| 20260905112141 | 74 | 89 | 1.0 | 1.0 | 0.00 | 0.00 | 0.00 | 95 | 1012.9 |